Location: Springfield
(37.2150°N, 93.2980°W)
Time: 07:46:53
(UTC-05:00)

Tiangong 2 - Visible Passes

Search period start: 19 June 2018 00:00
Search period end: 29 June 2018 00:00
Orbit: 292 x 297 km, 42.8° (Epoch: 19 June)

Date Brightness Start Highest point End Pass type
(mag) Time Alt. Az. Time Alt. Az. Time Alt. Az.
24 Jun 3.0 05:05:33 10° S 05:07:03 14° SE 05:08:34 10° ESE visible
25 Jun 1.8 05:10:34 11° SSW 05:12:46 30° SSE 05:15:04 10° E visible
26 Jun 0.6 05:15:58 10° WSW 05:18:28 70° SSE 05:21:01 10° ENE visible
27 Jun 3.3 03:50:54 13° ESE 03:50:54 13° ESE 03:51:27 10° E visible
27 Jun 1.0 05:21:39 10° W 05:24:09 56° NNW 05:26:41 10° ENE visible
28 Jun 2.3 03:56:03 26° ESE 03:56:03 26° ESE 03:57:32 10° E visible
